Weather History for EGWU - March, 2013

Change the Weather History Date:

Saturday, March 16, 2013

  Actual Average Record
Temperature  
Mean Temperature 45 °F -  
Max Temperature 49 °F 53 °F 66 °F (2014)
Min Temperature 41 °F 40 °F 32 °F (2003)
Degree Days  
Heating Degree Days 20    
Moisture  
Dew Point 39 °F    
Average Humidity 81    
Maximum Humidity 87    
Minimum Humidity 67    
Precipitation  
Precipitation 0.24 in - - ()
Sea Level Pressure  
Sea Level Pressure 29.38 in    
Wind  
Wind Speed 14 mph ()    
Max Wind Speed 21 mph    
Max Gust Speed 32 mph    
Visibility 7.8 miles    
Events Rain    
Averages and records for this station are not official NWS values.
T = Trace of Precipitation, MM = Missing Value Source: Averaged Metar Reports

Daily Weather History Graph

Daily Weather History Graph

Search for Another Location

Airport or City:

Trip Planner

Search our weather history database for the weather conditions in past years. The results will help you decide how hot, cold, wet, or windy it might be!

Date:

Astronomy

Mar. 16, 2013 Rise Set
Actual Time 6:13 AM GMT 6:08 PM GMT
Civil Twilight 5:40 AM GMT 6:41 PM GMT
Nautical Twilight 5:01 AM GMT 7:20 PM GMT
Astronomical Twilight 4:20 AM GMT 8:01 PM GMT
Moon 7:58 AM GMT (3/16) 11:41 PM GMT (3/16)
Length of Visible Light 13h 01m
Length of Day
11h 54m
Waxing Crescent, 21% of the Moon is Illuminated
Mar 16
Waxing Crescent
Mar 19
First Quarter
Mar 27
Full
Apr 3
Last Quarter
Apr 10
New

Hourly Weather History & Observations

Time (GMT) Temp. Windchill Dew Point Humidity Pressure Visibility Wind Dir Wind Speed Gust Speed Precip Events Conditions
12:50 AM 44.6 °F 37.8 °F 41.0 °F 87% 29.53 in 6.2 mi SSW 15.0 mph - N/A   Mostly Cloudy
1:50 AM 44.6 °F 37.2 °F 39.2 °F 81% 29.50 in 6.2 mi SSW 17.3 mph - N/A   Scattered Clouds
2:50 AM 45 °F - 39 °F 72% 29.50 in 18 mi SSW 17.3 mph - -   Mostly Cloudy
2:50 AM 44.6 °F 37.2 °F 39.2 °F 81% 29.47 in 6.2 mi SSW 17.3 mph - N/A   Mostly Cloudy
3:50 AM 44.6 °F 36.6 °F 39.2 °F 81% 29.47 in 6.2 mi SSW 19.6 mph - N/A   Scattered Clouds
4:50 AM 44.6 °F 37.2 °F 39.2 °F 81% 29.44 in 6.2 mi SSW 17.3 mph - N/A   Mostly Cloudy
5:50 AM 43 °F - 38 °F 77% 29.44 in 7 mi SSW 19.6 mph - -   Mostly Cloudy
5:50 AM 42.8 °F 34.3 °F 39.2 °F 87% 29.42 in 6.2 mi SSW 19.6 mph 32.2 mph N/A   Mostly Cloudy
6:50 AM 42.8 °F 34.8 °F 39.2 °F 87% 29.42 in 6.2 mi South 17.3 mph - N/A Rain Light Rain
7:50 AM 42.8 °F 34.3 °F 39.2 °F 87% 29.39 in 6.2 mi SSW 19.6 mph 31.1 mph N/A Rain Light Rain
8:50 AM 44 °F - 38 °F 74% 29.40 in 7 mi South 20.7 mph - - Rain Light Rain
8:50 AM 44.6 °F 36.4 °F 39.2 °F 81% 29.39 in 6.2 mi South 20.7 mph 32.2 mph N/A Rain Light Rain
9:50 AM 42.8 °F 34.3 °F 39.2 °F 87% 29.39 in 6.2 mi South 19.6 mph 31.1 mph N/A Rain Rain
10:50 AM 42.8 °F 34.3 °F 39.2 °F 87% 29.36 in 6.2 mi SSW 19.6 mph - N/A Rain Rain
11:50 AM 43 °F - 40 °F 84% 29.39 in 19 mi WSW 11.5 mph - - Rain Light Rain
11:50 AM 42.8 °F 36.6 °F 39.2 °F 87% 29.39 in 6.2 mi WSW 11.5 mph - N/A   Mostly Cloudy
12:50 PM 46.4 °F 40.7 °F 39.2 °F 76% 29.36 in 6.2 mi SSW 12.7 mph - N/A   Mostly Cloudy
1:50 PM 48.2 °F - 39.2 °F 71% 29.36 in 6.2 mi SSW 13.8 mph - N/A   Scattered Clouds
2:50 PM 45 °F - 39 °F 73% 29.36 in 19 mi SSW 13.8 mph - - Rain Light Rain Showers
2:50 PM 44.6 °F 38.1 °F 39.2 °F 81% 29.36 in 6.2 mi SSW 13.8 mph - N/A Rain Light Rain Showers
3:50 PM 44.6 °F 37.2 °F 37.4 °F 76% 29.33 in 6.2 mi South 17.3 mph - N/A Rain Light Rain Showers
4:50 PM 44.6 °F 37.2 °F 37.4 °F 76% 29.33 in 6.2 mi South 17.3 mph - N/A   Scattered Clouds
5:50 PM 44 °F - 37 °F 67% 29.33 in 19 mi South 15.0 mph - - Rain Light Rain Showers
5:50 PM 42.8 °F 35.4 °F 37.4 °F 81% 29.33 in 6.2 mi South 15.0 mph - N/A Rain Light Rain Showers
6:50 PM 42.8 °F 36.6 °F 39.2 °F 87% 29.33 in 6.2 mi South 11.5 mph - N/A Rain Light Rain Showers
7:50 PM 42.8 °F 36.6 °F 37.4 °F 81% 29.30 in 6.2 mi SSE 11.5 mph - N/A   Mostly Cloudy
8:50 PM 43 °F - 39 °F 81% 29.29 in 6 mi South 10.4 mph - -   Scattered Clouds
8:50 PM 42.8 °F 37.0 °F 39.2 °F 87% 29.27 in 5.6 mi South 10.4 mph - N/A   Mostly Cloudy
9:50 PM 42.8 °F 37.5 °F 39.2 °F 87% 29.27 in 6.2 mi SSW 9.2 mph - N/A   Scattered Clouds
10:50 PM 42.8 °F 35.8 °F 37.4 °F 81% 29.30 in 6.2 mi SW 13.8 mph - N/A   Mostly Cloudy
11:50 PM 41 °F - 36 °F 77% 29.31 in 28 mi SW 10.4 mph - -   Scattered Clouds
11:50 PM 41.0 °F 34.7 °F 35.6 °F 81% 29.30 in 6.2 mi SW 10.4 mph - N/A   Mostly Cloudy